Starlink 32812

operational
NORAD ID: 63038 Int'l Des: 2025-034 Owner: SPXS Country: US Constellation: starlink
LEOCIRCULAR

关于 Starlink 32812

正在加载描述...

实时位置

正在加载3D地球...

即将过境

高度历史

Altitude vs Time

uPlot chart will show altitude changes over time

两行轨道根数

1 63038U 25034K 25353.01545609 .00009313 00000-0 32618-3 0 9991
2 63038 53.1582 272.9614 0001211 86.7929 273.3211 15.30199210 46733
Epoch: Dec 19, 2025 • Age: 20 hours

当前状态

高度 493.6 km
速度 7.62 km/s
星下点 -50.99°S, 122.91°E
发射日期 Feb 18, 2025
运行时间 0.8 years
类型 internet

技术详情

分类 Payload
质量 730.00 kg
干质量 700.00 kg
总质量 730.00 kg
长度 0.30 m
直径 4.10 m
跨度 29.00 m
形状 Box + pan
制造商 SPXS
平台类型 Starlink V2M
阶段状态 In Orbit
所有者/国家 SPXS/US

大型星座

Loading constellations...